This is the latest recevied weather packets stored in our database for station/object K2NV. If no packets are shown the sender has not sent any weather packets the latest 10 day(s).
| Time | Temp. | Humidity | Pressure | Rain* | Wind** | Luminosity | Snow |
|---|---|---|---|---|---|---|---|
| 1778051055 | 8.89° C | 93% | 1006.9 hPa | 0.25 mm | - | - | - |
| 1778050757 | 8.33° C | 93% | 1006.9 hPa | 0.25 mm | - | - | - |
| 1778050456 | 8.33° C | 93% | 1006.9 hPa | 0.51 mm | - | - | - |
| 1778050156 | 8.33° C | 93% | 1006.8 hPa | 0.51 mm | - | - | - |
| 1778049856 | 8.33° C | 93% | 1007.1 hPa | 0.51 mm | - | - | - |
| 1778049557 | 8.33° C | 93% | 1007.1 hPa | 0.51 mm | - | - | - |
| 1778049256 | 8.33° C | 93% | 1007 hPa | 0.25 mm | - | - | - |
| 1778048656 | 8.89° C | 93% | 1007 hPa | 0.25 mm | - | - | - |
| 1778048356 | 8.89° C | 93% | 1007.3 hPa | 0.25 mm | - | - | - |
| 1778048055 | 8.89° C | 93% | 1007.2 hPa | 0.51 mm | - | - | - |
| 1778047756 | 8.89° C | 93% | 1007 hPa | 0.51 mm | - | - | - |
| 1778047456 | 8.89° C | 93% | 1006.9 hPa | 0.51 mm | - | - | - |
| 1778047158 | 8.89° C | 93% | 1006.9 hPa | 0.76 mm | - | - | - |
| 1778046856 | 8.89° C | 93% | 1007.2 hPa | 0.51 mm | - | - | - |
| 1778046256 | 8.89° C | 93% | 1007 hPa | 0.76 mm | - | - | - |
| 1778045957 | 8.89° C | 93% | 1007.3 hPa | 0.76 mm | - | - | - |
| 1778045657 | 8.89° C | 93% | 1007.5 hPa | 0.76 mm | - | - | - |
| 1778045356 | 8.89° C | 93% | 1007.5 hPa | 0.76 mm | - | - | - |
| 1778045056 | 8.89° C | 93% | 1007.7 hPa | 1.02 mm | - | - | - |
| 1778044758 | 8.89° C | 93% | 1007.6 hPa | 1.02 mm | - | - | - |
| 1778044455 | 8.89° C | 93% | 1007.7 hPa | 0.76 mm | - | - | - |
| 1778044156 | 8.89° C | 93% | 1007.9 hPa | 0.76 mm | - | - | - |
| 1778043857 | 8.89° C | 93% | 1007.9 hPa | 0.76 mm | - | - | - |
| 1778043557 | 8.89° C | 93% | 1007.9 hPa | 0 mm | - | - | - |
| 1778043256 | 8.89° C | 93% | 1007.8 hPa | 0 mm | - | - | - |
* Rain latest hour (hover to see other rain measurements)
** Current wind speed in m/s (hover to see current wind gust speed)